TimeCDT,TemperatureF,Dew PointF,Humidity,Sea Level PressureIn,VisibilityMPH,Wind Direction,Wind SpeedMPH,Gust SpeedMPH,PrecipitationIn,Events,Conditions,WindDirDegrees,DateUTC
12:11 AM,66.2,64.4,94,29.88,10.0,East,6.9,-,0.00,,Overcast,90,2013-05-01 05:11:00
12:53 AM,66.0,64.9,96,29.87,10.0,East,5.8,-,0.00,,Overcast,90,2013-05-01 05:53:00
1:03 AM,66.2,64.4,94,29.86,10.0,East,6.9,-,0.00,Rain,Light Rain,80,2013-05-01 06:03:00
1:22 AM,66.2,64.4,94,29.86,10.0,East,6.9,-,0.00,,Overcast,90,2013-05-01 06:22:00
1:53 AM,66.0,64.9,96,29.84,10.0,East,5.8,-,0.00,,Overcast,80,2013-05-01 06:53:00
2:53 AM,66.0,64.9,96,29.83,10.0,ENE,6.9,-,N/A,,Overcast,70,2013-05-01 07:53:00
3:39 AM,66.2,64.4,94,29.83,10.0,East,3.5,-,N/A,,Overcast,90,2013-05-01 08:39:00
3:53 AM,66.9,66.0,97,29.83,9.0,East,3.5,-,N/A,,Overcast,80,2013-05-01 08:53:00
4:53 AM,66.9,66.0,97,29.85,7.0,East,4.6,-,N/A,,Overcast,80,2013-05-01 09:53:00
5:53 AM,66.9,66.0,97,29.86,7.0,East,5.8,-,N/A,,Overcast,90,2013-05-01 10:53:00
6:51 AM,66.2,66.2,100,29.88,2.0,East,5.8,-,N/A,,Overcast,100,2013-05-01 11:51:00
6:53 AM,66.9,66.0,97,29.88,2.0,East,5.8,-,N/A,,Overcast,90,2013-05-01 11:53:00
7:53 AM,66.9,66.9,100,29.88,2.0,East,5.8,-,N/A,,Overcast,90,2013-05-01 12:53:00
8:53 AM,68.0,66.9,96,29.90,2.0,ENE,6.9,27.6,N/A,,Overcast,60,2013-05-01 13:53:00
9:18 AM,69.8,66.2,88,29.90,4.0,ENE,4.6,-,0.00,,Overcast,70,2013-05-01 14:18:00
9:53 AM,70.0,68.0,93,29.91,10.0,East,4.6,-,0.00,,Overcast,90,2013-05-01 14:53:00
10:23 AM,73.4,68.0,83,29.90,10.0,North,-9999.0,-,N/A,,Mostly Cloudy,0,2013-05-01 15:23:00
10:53 AM,75.9,68.0,76,29.90,10.0,North,-9999.0,-,N/A,,Mostly Cloudy,0,2013-05-01 15:53:00
11:53 AM,75.9,66.9,74,29.89,10.0,Variable,3.5,20.7,N/A,,Mostly Cloudy,0,2013-05-01 16:53:00
12:11 PM,75.2,66.2,73,29.89,1.8,Calm,Calm,-,0.01,Rain,Heavy Rain,0,2013-05-01 17:11:00
12:14 PM,73.4,66.2,78,29.88,10.0,Calm,Calm,-,0.04,Rain,Heavy Rain,0,2013-05-01 17:14:00
12:28 PM,73.4,69.8,88,29.88,10.0,West,9.2,-,0.07,Rain-Thunderstorm,Light Thunderstorms and Rain,260,2013-05-01 17:28:00
12:53 PM,73.9,68.0,82,29.86,10.0,West,9.2,-,0.07,Rain-Thunderstorm,Light Thunderstorms and Rain,260,2013-05-01 17:53:00
1:24 PM,75.2,69.8,83,29.87,10.0,West,5.8,-,0.00,,Mostly Cloudy,270,2013-05-01 18:24:00
1:53 PM,73.0,66.9,81,29.88,10.0,West,5.8,-,0.00,,Mostly Cloudy,270,2013-05-01 18:53:00
2:14 PM,71.6,62.6,73,29.88,10.0,ESE,4.6,-,0.00,Rain-Thunderstorm,Thunderstorms and Rain,110,2013-05-01 19:14:00
2:51 PM,73.4,66.2,78,29.87,10.0,SSE,6.9,-,N/A,,Overcast,150,2013-05-01 19:51:00
2:53 PM,73.9,66.0,76,29.86,10.0,SSE,8.1,-,N/A,,Mostly Cloudy,150,2013-05-01 19:53:00
3:53 PM,77.0,64.0,64,29.82,10.0,Calm,Calm,-,N/A,,Scattered Clouds,0,2013-05-01 20:53:00
4:53 PM,77.0,63.0,62,29.84,10.0,Calm,Calm,-,N/A,,Partly Cloudy,0,2013-05-01 21:53:00
5:53 PM,75.9,66.9,74,29.85,10.0,North,-9999.0,-,N/A,,Mostly Cloudy,0,2013-05-01 22:53:00
6:53 PM,73.9,66.0,76,29.86,10.0,NE,4.6,-,N/A,,Mostly Cloudy,40,2013-05-01 23:53:00
7:53 PM,71.1,64.9,81,29.87,10.0,NE,9.2,-,0.00,Rain,Light Rain,50,2013-05-02 00:53:00
8:53 PM,68.0,66.0,93,29.89,10.0,ENE,4.6,-,0.00,,Partly Cloudy,60,2013-05-02 01:53:00
9:28 PM,68.0,66.2,94,29.90,10.0,NE,9.2,-,N/A,,Mostly Cloudy,50,2013-05-02 02:28:00
9:53 PM,66.9,64.9,93,29.91,10.0,ENE,5.8,-,N/A,,Mostly Cloudy,60,2013-05-02 02:53:00
10:53 PM,66.0,64.0,93,29.90,10.0,East,6.9,-,N/A,,Mostly Cloudy,100,2013-05-02 03:53:00
11:25 PM,66.2,64.4,94,29.90,10.0,East,4.6,-,N/A,,Mostly Cloudy,100,2013-05-02 04:25:00
11:53 PM,66.0,64.0,93,29.89,10.0,East,4.6,-,N/A,,Overcast,100,2013-05-02 04:53:00